Temp
3 3 2 2 2 1 1 0 -0 -1 -1 -1 -1 -1 -0 -0 -0 0 0 0 1 1 1 1 1 1 1 1 1 1 1 1 2 2 2 2 2 2 2 1 1 1 1
2 2 2 2 1 0 -0 -0 -1 -1 -1 -1 -1 -1 -0 -0 -0 -0 0 0 0 1 1 1 1 1 1 0 1 1 1 1 1 2 2 2 2 1 1 2 1 1 1
1 1 1 1 0 -0 -1 -1 -1 -1 -1 -1 -2 -1 -2 -1 -1 -1 -0 0 0 0 0 0 0 1 1 0 0 0 1 1 1 1 1 2 2 2 1 1 1 1 1
1 1 0 -0 -1 -1 -2 -2 -1 -1 -1 -1 -1 -2 -1 -1 -1 -1 -1 -1 -1 -1 -1 -1 -0 -0 -0 0 0 -0 -0 -0 0 1 0 0 1 1 1 1 1 1 0
1 0 -0 -1 -1 -2 -1 -1 -1 -1 -1 -1 -1 -2 -2 -2 -2 -2 -2 -2 -2 -2 -2 -1 -1 -1 -1 -1 -1 -0 -1 -1 -1 -1 -0 0 0 1 1 1 1 1 1
-0 -1 -1 -1 -1 -1 -1 -1 -2 -2 -2 -2 -2 -3 -3 -3 -3 -3 -3 -3 -3 -3 -3 -3 -3 -2 -2 -2 -2 -2 -2 -1 -2 -2 -1 -1 -0 -0 0 1 1 1 0
-1 -1 -1 -2 -2 -2 -2 -2 -2 -2 -2 -2 -2 -3 -3 -3 -3 -4 -4 -4 -4 -4 -4 -4 -4 -4 -3 -3 -3 -3 -3 -3 -3 -3 -2 -2 -2 -1 -1 -0 0 0 0
-1 -1 -1 -2 -2 -2 -2 -2 -2 -2 -3 -3 -3 -3 -4 -4 -4 -5 -5 -5 -5 -5 -5 -5 -5 -5 -5 -5 -4 -4 -4 -3 -3 -3 -3 -3 -3 -2 -2 -1 -1 -1 -0
-1 -1 -2 -2 -2 -3 -3 -4 -4 -4 -4 -5 -5 -5 -6 -6 -6 -7 -7 -7 -7 -7 -7 -7 -7 -6 -6 -6 -6 -5 -5 -4 -4 -4 -4 -4 -3 -3 -3 -2 -2 -2 -1
-2 -2 -3 -3 -4 -4 -5 -5 -6 -6 -6 -6 -7 -7 -7 -8 -8 -8 -9 -9 -9 -9 -9 -9 -9 -8 -8 -8 -7 -7 -6 -6 -6 -5 -5 -4 -4 -4 -4 -3 -2 -2 -2
-3 -4 -4 -5 -5 -6 -6 -7 -7 -8 -8 -8 -9 -9 -9 -10 -10 -11 -11 -11 -11 -10 -11 -11 -11 -11 -10 -10 -9 -9 -8 -7 -7 -6 -6 -5 -5 -5 -5 -5 -3 -3 -3
-5 -5 -6 -6 -6 -7 -8 -8 -9 -10 -10 -11 -11 -11 -11 -11 -11 -11 -12 -12 -13 -12 -12 -12 -13 -13 -13 -13 -12 -12 -11 -10 -9 -8 -7 -7 -6 -5 -5 -5 -5 -4 -3
-6 -6 -7 -7 -8 -8 -9 -10 -10 -11 -11 -11 -12 -12 -12 -12 -12 -12 -14 -14 -14 -14 -13 -13 -14 -14 -14 -14 -13 -13 -12 -12 -11 -10 -10 -9 -8 -8 -7 -6 -6 -5 -4
-6 -7 -7 -8 -9 -9 -10 -10 -11 -12 -12 -12 -13 -12 -13 -13 -13 -14 -14 -14 -15 -14 -14 -15 -14 -14 -15 -15 -15 -15 -14 -13 -13 -12 -11 -11 -11 -10 -9 -8 -7 -6 -5
-6 -6 -7 -8 -9 -10 -11 -12 -13 -13 -13 -13 -13 -14 -14 -14 -14 -15 -15 -15 -16 -15 -13 -15 -15 -15 -15 -15 -15 -15 -15 -15 -14 -14 -13 -12 -11 -11 -10 -10 -9 -8 -7
-7 -8 -9 -10 -11 -12 -13 -13 -13 -14 -14 -14 -14 -14 -15 -15 -15 -15 -15 -16 -16 -16 -15 -16 -15 -15 -15 -15 -16 -15 -15 -15 -14 -14 -14 -13 -12 -12 -11 -11 -10 -10 -9
-9 -10 -11 -12 -12 -13 -13 -14 -14 -15 -15 -15 -15 -15 -15 -15 -15 -15 -16 -16 -16 -16 -16 -16 -16 -16 -16 -16 -16 -16 -16 -15 -15 -15 -14 -14 -13 -13 -12 -11 -11 -10 -9
-9 -10 -11 -12 -13 -13 -14 -14 -14 -14 -14 -15 -15 -15 -15 -15 -16 -16 -16 -16 -16 -17 -17 -16 -16 -16 -16 -16 -16 -16 -17 -16 -16 -15 -15 -15 -14 -14 -13 -13 -11 -11 -11
-10 -11 -12 -12 -13 -13 -14 -14 -14 -14 -15 -15 -15 -15 -16 -16 -16 -16 -16 -17 -17 -17 -17 -17 -16 -17 -17 -17 -17 -17 -17 -17 -17 -16 -16 -15 -15 -15 -14 -13 -13 -12 -11
-11 -12 -12 -13 -13 -14 -14 -14 -14 -15 -15 -15 -15 -16 -16 -16 -16 -17 -17 -17 -17 -17 -17 -17 -17 -17 -18 -18 -18 -18 -18 -17 -17 -17 -16 -16 -16 -15 -15 -14 -14 -13 -12
-12 -12 -13 -13 -13 -14 -14 -14 -15 -15 -16 -15 -16 -16 -16 -17 -17 -17 -17 -17 -17 -18 -18 -18 -18 -18 -18 -18 -19 -19 -18 -18 -18 -17 -17 -17 -16 -16 -15 -15 -14 -14 -13
-12 -13 -13 -13 -13 -14 -14 -15 -15 -15 -15 -15 -16 -16 -17 -17 -17 -17 -17 -17 -18 -18 -18 -19 -19 -19 -19 -19 -19 -19 -19 -19 -18 -18 -18 -17 -17 -16 -16 -15 -15 -14 -14
-13 -13 -13 -14 -14 -14 -15 -15 -15 -15 -15 -16 -16 -16 -17 -17 -17 -17 -17 -18 -18 -19 -19 -19 -20 -20 -20 -20 -20 -20 -20 -20 -19 -18 -18 -17 -17 -17 -16 -16 -15 -14 -14
-13 -13 -14 -14 -15 -15 -15 -15 -15 -16 -16 -16 -17 -17 -17 -17 -17 -17 -17 -18 -18 -18 -19 -19 -20 -20 -20 -20 -20 -20 -20 -20 -20 -19 -18 -18 -18 -17 -17 -16 -16 -15 -14
-13 -13 -14 -15 -15 -15 -15 -15 -15 -16 -16 -16 -17 -17 -17 -17 -17 -17 -18 -18 -18 -19 -19 -20 -20 -20 -20 -20 -20 -21 -21 -20 -20 -19 -19 -18 -18 -18 -17 -17 -16 -16 -15
-13 -14 -14 -15 -15 -15 -15 -15 -15 -16 -16 -17 -17 -17 -17 -17 -17 -18 -18 -18 -18 -18 -19 -19 -20 -20 -21 -21 -20 -20 -20 -20 -20 -20 -19 -19 -18 -18 -17 -17 -17 -16 -15
Height
3181 3179 3177 3176 3174 3172 3170 3168 3166 3164 3162 3159 3156 3154 3151 3149 3146 3144 3143 3141 3139 3138 3137 3135 3134 3132 3133 3134 3134 3134 3133 3132 3132 3132 3132 3131 3132 3133 3135 3136 3138 3141 3142
3178 3175 3173 3171 3169 3166 3164 3162 3160 3157 3155 3153 3150 3147 3145 3143 3139 3137 3135 3133 3131 3130 3128 3128 3126 3125 3123 3123 3124 3126 3127 3126 3126 3126 3126 3126 3126 3126 3128 3130 3131 3133 3135
3174 3171 3168 3165 3163 3160 3158 3155 3152 3148 3147 3144 3142 3139 3136 3135 3131 3129 3126 3125 3123 3121 3119 3118 3117 3116 3115 3114 3114 3114 3115 3117 3118 3118 3119 3119 3119 3120 3121 3122 3124 3126 3128
3169 3165 3162 3160 3157 3153 3149 3147 3144 3142 3138 3135 3132 3130 3128 3126 3122 3119 3115 3113 3112 3111 3109 3108 3107 3106 3106 3105 3104 3104 3104 3104 3106 3108 3108 3110 3111 3111 3112 3113 3115 3117 3121
3162 3160 3157 3154 3150 3147 3143 3140 3137 3133 3129 3125 3122 3118 3117 3114 3111 3108 3105 3101 3099 3098 3097 3097 3095 3095 3094 3094 3094 3094 3093 3093 3094 3096 3098 3099 3101 3102 3104 3105 3106 3109 3112
3158 3154 3151 3147 3143 3139 3135 3131 3126 3121 3117 3112 3109 3105 3103 3101 3099 3097 3094 3091 3089 3087 3084 3083 3082 3082 3082 3081 3081 3082 3082 3081 3082 3084 3086 3089 3090 3091 3093 3095 3097 3099 3102
3152 3148 3144 3140 3135 3131 3127 3122 3117 3113 3108 3103 3097 3093 3091 3088 3086 3084 3081 3079 3077 3075 3072 3070 3069 3069 3069 3068 3068 3068 3068 3069 3070 3071 3073 3076 3077 3081 3082 3085 3086 3089 3091
3146 3141 3137 3132 3127 3122 3117 3112 3107 3102 3098 3093 3088 3083 3079 3076 3073 3071 3069 3066 3064 3062 3059 3056 3055 3054 3053 3054 3054 3054 3054 3055 3056 3057 3059 3062 3064 3067 3070 3073 3075 3077 3080
3136 3132 3126 3120 3115 3110 3106 3101 3097 3092 3087 3083 3079 3075 3068 3063 3059 3059 3056 3053 3050 3048 3046 3042 3039 3037 3037 3037 3038 3038 3039 3040 3041 3042 3044 3046 3050 3053 3057 3061 3064 3066 3069
3125 3119 3113 3108 3104 3099 3095 3090 3084 3079 3075 3070 3067 3062 3057 3051 3045 3039 3038 3040 3038 3034 3031 3029 3026 3024 3021 3021 3021 3022 3023 3024 3025 3027 3028 3030 3034 3038 3043 3047 3051 3055 3057
3114 3109 3104 3098 3093 3088 3083 3077 3072 3067 3062 3058 3052 3048 3045 3040 3034 3028 3024 3024 3019 3021 3019 3017 3014 3011 3008 3007 3006 3006 3007 3008 3010 3011 3012 3014 3018 3022 3025 3031 3037 3042 3045
3104 3098 3093 3087 3082 3076 3071 3065 3059 3054 3050 3045 3040 3037 3034 3031 3026 3021 3016 3014 3010 3009 3006 3004 3003 3000 2998 2996 2994 2994 2994 2994 2995 2996 2997 2999 3001 3005 3010 3014 3021 3028 3032
3095 3090 3084 3078 3072 3066 3060 3053 3049 3044 3040 3036 3033 3029 3025 3022 3018 3013 3008 3003 3000 3000 2996 2993 2990 2989 2988 2985 2984 2983 2982 2983 2982 2983 2983 2984 2986 2989 2993 2998 3004 3011 3019
3087 3082 3076 3069 3062 3055 3050 3045 3040 3036 3032 3028 3023 3020 3016 3012 3008 3004 3000 2995 2991 2989 2987 2983 2980 2977 2974 2973 2972 2971 2970 2970 2970 2971 2971 2973 2974 2976 2979 2983 2987 2995 3004
3079 3072 3065 3059 3053 3048 3043 3037 3032 3028 3023 3019 3014 3011 3008 3004 2999 2994 2990 2986 2982 2977 2974 2973 2971 2968 2965 2963 2961 2961 2959 2959 2959 2959 2960 2962 2964 2966 2968 2971 2974 2978 2988
3067 3061 3055 3049 3044 3038 3033 3028 3024 3019 3014 3011 3007 3003 3000 2995 2990 2986 2981 2978 2974 2970 2961 2965 2962 2958 2956 2952 2950 2948 2949 2948 2948 2949 2949 2950 2953 2954 2957 2960 2964 2968 2974
3057 3051 3044 3038 3032 3027 3023 3017 3013 3009 3006 3003 3000 2996 2992 2987 2982 2978 2974 2970 2966 2962 2954 2952 2950 2947 2943 2941 2939 2937 2937 2937 2937 2937 2938 2939 2941 2944 2946 2949 2954 2958 2964
3048 3040 3034 3028 3023 3018 3013 3009 3006 3003 3000 2997 2993 2989 2984 2979 2975 2970 2966 2962 2957 2952 2946 2939 2939 2936 2931 2929 2927 2925 2926 2926 2926 2927 2928 2929 2931 2933 2936 2938 2942 2947 2953
3039 3032 3025 3020 3014 3010 3006 3002 3000 2997 2994 2990 2986 2981 2976 2971 2967 2962 2957 2952 2947 2941 2936 2929 2925 2922 2919 2917 2915 2914 2914 2915 2915 2916 2918 2919 2920 2924 2927 2929 2932 2937 2942
3030 3023 3017 3011 3006 3002 2998 2995 2994 2990 2987 2983 2978 2973 2968 2963 2958 2953 2948 2942 2936 2930 2925 2919 2914 2911 2908 2906 2905 2904 2903 2904 2905 2906 2907 2909 2911 2913 2917 2921 2924 2926 2931
3020 3015 3009 3004 3000 2997 2993 2990 2987 2984 2980 2976 2971 2966 2961 2955 2950 2943 2937 2931 2925 2918 2913 2909 2905 2902 2899 2897 2896 2894 2893 2894 2896 2896 2898 2901 2902 2905 2908 2911 2915 2919 2922
3012 3007 3003 2998 2994 2991 2987 2984 2981 2977 2973 2968 2963 2958 2952 2947 2941 2934 2928 2921 2915 2909 2905 2901 2897 2893 2891 2889 2888 2886 2885 2885 2887 2889 2890 2891 2893 2896 2899 2902 2907 2911 2915
3005 3000 2995 2992 2988 2984 2981 2978 2974 2970 2966 2961 2955 2949 2944 2938 2931 2924 2918 2912 2907 2903 2898 2893 2889 2886 2883 2882 2880 2879 2878 2877 2878 2880 2881 2883 2886 2889 2891 2893 2897 2902 2906
2998 2994 2989 2985 2982 2979 2975 2972 2969 2964 2960 2955 2948 2942 2936 2930 2923 2916 2909 2904 2900 2896 2892 2887 2883 2880 2877 2875 2873 2872 2871 2871 2871 2873 2874 2875 2879 2881 2882 2885 2889 2894 2899
2991 2986 2982 2978 2975 2972 2969 2966 2963 2959 2954 2949 2943 2936 2929 2923 2916 2909 2903 2898 2894 2890 2885 2881 2876 2873 2871 2869 2867 2867 2866 2865 2865 2867 2868 2869 2873 2875 2877 2879 2883 2887 2892
2983 2978 2975 2972 2969 2966 2964 2961 2957 2953 2948 2943 2937 2930 2924 2917 2910 2903 2897 2892 2888 2884 2879 2875 2871 2868 2867 2865 2863 2862 2861 2860 2861 2863 2865 2865 2868 2870 2873 2874 2876 2880 2884
Wind_Speed
18 18 20 22 24 25 25 25 25 26 28 30 31 32 33 33 34 35 33 32 32 32 32 33 33 34 34 33 32 29 28 28 29 32 33 34 34 33 33 30 29 30 29
18 20 23 26 27 27 26 29 30 30 29 32 34 36 35 37 39 39 38 37 37 38 38 37 36 36 36 36 37 37 35 32 31 32 34 36 37 37 36 35 35 33 33
20 23 26 29 31 33 31 33 28 32 39 39 39 42 45 44 43 43 43 43 43 44 43 42 40 39 39 38 37 37 39 40 38 35 36 38 38 39 40 38 36 35 35
23 26 27 29 30 36 32 35 36 41 37 46 47 47 48 47 48 49 50 49 47 45 44 43 43 43 43 43 42 40 39 40 40 39 39 39 40 41 41 42 41 39 36
28 30 31 32 34 34 37 40 42 44 46 48 49 50 51 51 50 49 49 49 48 48 47 46 46 46 46 46 45 44 43 41 41 41 41 41 41 43 43 44 44 42 40
27 28 30 33 36 37 40 43 45 48 50 52 53 53 51 50 47 47 47 48 48 47 47 48 48 47 48 48 47 46 46 46 44 42 42 42 43 44 46 46 46 46 45
27 31 35 37 39 40 41 42 44 46 47 50 52 52 51 52 50 48 47 46 46 46 47 48 48 48 49 50 50 49 50 48 47 46 45 43 44 45 46 48 49 48 48
33 36 34 35 37 40 42 43 44 46 48 50 52 54 54 54 53 52 51 51 50 49 51 52 52 53 53 52 52 53 53 52 52 51 49 47 46 46 47 47 48 49 50
38 39 40 40 42 42 42 42 43 45 47 48 49 50 53 55 56 51 49 49 49 47 47 48 50 52 53 53 53 52 52 53 54 54 54 53 51 49 48 49 49 48 49
42 43 44 44 44 44 45 45 46 48 48 49 50 50 50 52 50 51 45 37 33 35 37 40 44 46 47 48 49 50 50 50 51 53 55 56 55 54 51 50 51 51 49
44 43 44 45 46 47 49 48 47 47 48 47 47 44 39 37 33 34 37 37 40 37 35 35 37 40 41 43 45 45 46 47 48 50 53 55 56 57 57 54 54 54 51
43 44 45 46 49 49 48 46 46 46 44 40 36 35 33 31 32 36 39 38 35 39 41 37 35 36 36 38 39 40 41 43 45 47 51 53 55 56 59 59 56 56 56
44 45 47 48 48 47 48 47 46 45 43 40 34 34 36 34 35 36 31 32 33 31 36 41 40 38 39 41 41 40 40 41 43 44 45 46 49 51 55 60 61 59 59
46 46 47 47 48 49 48 46 43 40 39 37 33 34 34 34 35 37 36 38 35 36 40 47 46 41 38 33 33 34 37 38 41 43 43 41 42 42 44 51 59 62 61
47 48 49 50 49 47 44 40 37 37 28 29 34 26 30 34 38 36 34 33 32 36 38 33 37 38 35 36 37 34 34 36 38 39 42 42 40 39 38 38 44 57 60
49 50 49 47 45 41 38 39 39 32 26 27 27 29 32 37 36 33 33 33 33 35 43 36 36 37 36 36 37 35 35 35 36 37 40 41 43 42 39 37 35 40 43
48 48 47 44 41 38 36 37 34 27 26 26 29 33 36 37 34 34 34 34 36 37 42 41 41 41 41 39 38 36 36 34 33 35 36 38 39 38 38 38 37 34 36
47 47 45 41 38 34 35 33 28 27 26 29 32 37 37 35 34 35 35 36 38 38 42 45 41 39 39 38 36 36 35 34 33 34 34 35 35 34 35 34 37 37 41
44 41 40 36 35 32 31 27 27 28 28 32 35 39 34 34 35 36 37 38 39 40 41 42 41 40 39 36 35 35 33 33 33 33 33 33 34 32 31 32 33 38 37
42 40 35 34 30 25 24 25 23 27 32 35 38 33 34 35 36 36 37 38 40 39 39 40 39 37 35 34 33 32 32 31 32 33 32 32 32 32 30 31 29 33 35
41 38 32 30 24 22 22 26 27 28 31 33 30 32 33 33 34 35 38 38 39 39 37 34 33 32 31 29 28 29 30 31 31 32 30 30 30 29 29 31 29 28 33
39 34 29 26 23 24 23 23 25 28 26 29 31 32 32 33 34 36 36 36 33 30 30 31 31 30 28 26 24 25 27 28 28 27 28 29 30 27 26 30 30 28 32
38 32 29 28 26 26 26 26 24 25 27 29 32 33 33 33 34 36 36 31 27 26 28 29 29 28 27 25 24 22 22 24 24 24 26 28 27 25 25 28 31 31 30
35 32 30 28 27 27 26 22 23 25 27 30 32 32 32 32 34 36 33 28 27 26 26 25 25 25 23 22 21 21 21 21 21 21 22 24 23 23 27 28 30 31 30
34 31 29 27 25 24 20 21 23 25 28 29 29 30 32 33 34 33 30 27 26 25 24 23 23 21 19 18 16 16 18 19 18 16 19 21 20 22 24 26 27 28 29
31 29 26 23 22 19 19 21 24 26 28 28 28 29 31 32 33 31 28 26 26 24 24 21 20 17 13 10 8 8 10 15 16 15 14 19 15 17 18 22 24 25 27
Wind_Direction
311 310 310 309 309 309 306 300 302 302 298 297 298 300 302 303 303 301 300 299 298 296 292 289 286 284 279 271 267 267 269 269 265 260 257 255 253 253 250 248 245 243 243
305 304 302 302 300 300 297 294 298 297 294 297 296 296 299 298 300 299 297 295 296 296 294 291 287 282 278 275 271 267 263 264 268 267 262 256 254 253 252 250 249 248 242
295 297 295 295 299 299 299 303 298 308 291 302 299 297 299 299 298 296 294 292 291 291 290 288 285 281 277 275 273 270 267 263 261 261 262 262 257 253 251 251 250 249 243
288 289 296 300 293 299 296 302 288 303 290 297 295 292 292 295 295 294 293 292 291 289 286 283 280 278 275 274 273 270 267 266 263 259 255 256 259 258 253 251 249 247 245
290 291 298 289 298 297 299 298 297 296 294 294 295 295 295 294 294 293 292 291 290 289 286 283 278 275 274 272 269 269 269 267 263 260 255 251 251 255 256 253 250 247 245
300 306 304 302 300 298 297 297 296 296 295 296 295 295 295 294 293 292 290 289 288 286 283 280 277 274 272 270 269 268 266 265 265 262 259 255 251 249 250 254 253 250 246
306 305 302 297 293 293 295 297 297 296 295 295 295 295 295 294 294 293 291 289 287 285 282 279 277 274 270 268 268 267 266 266 265 263 261 256 252 249 248 249 252 252 251
304 303 303 302 299 300 302 302 301 299 296 295 295 295 296 296 293 293 290 288 286 283 281 279 278 277 275 271 267 266 266 265 263 262 261 258 255 251 247 245 249 251 250
316 314 313 311 310 308 306 303 300 297 295 294 294 294 295 294 293 289 288 286 285 284 282 280 277 275 274 273 272 269 266 263 263 261 260 258 256 252 249 245 243 247 249
319 318 316 314 313 310 307 306 304 301 300 297 296 295 296 297 297 295 295 291 286 283 282 280 279 277 275 273 271 270 268 265 263 261 259 256 255 253 248 245 244 243 246
318 316 314 313 312 311 310 307 305 304 303 303 302 302 301 295 295 299 303 306 307 301 294 286 275 269 266 264 263 262 262 261 261 261 258 255 252 250 249 243 241 242 242
317 317 315 313 311 311 311 312 312 311 311 310 309 308 303 296 299 302 304 304 304 305 300 293 284 274 270 270 269 268 265 261 258 256 255 254 252 248 246 246 239 237 240
317 315 313 311 311 313 314 315 315 313 310 308 306 304 301 295 299 299 299 299 298 300 293 293 288 282 280 281 274 270 265 261 260 259 257 255 253 250 245 242 242 235 235
314 312 311 314 316 316 315 312 310 308 306 303 297 302 294 294 297 300 299 296 293 292 286 284 288 289 290 284 278 271 266 260 257 257 256 256 256 253 250 245 240 239 233
312 316 316 316 314 311 310 308 307 309 304 295 298 298 301 302 304 306 301 298 299 298 293 292 297 297 289 287 282 273 270 265 262 260 256 253 252 253 251 248 245 240 234
319 316 315 312 311 310 310 308 309 307 303 298 304 307 306 308 308 304 303 302 300 299 297 300 298 294 292 288 285 281 275 270 264 262 261 257 253 254 255 250 245 243 240
315 314 313 313 312 309 306 310 312 306 301 300 306 310 310 309 306 304 302 301 300 299 296 298 297 296 292 288 283 280 277 274 268 261 258 259 257 255 255 251 244 241 225
316 315 314 313 310 311 309 309 305 300 297 295 301 309 309 306 304 303 301 300 298 297 296 296 296 293 289 287 284 278 273 270 267 262 258 257 257 256 252 250 242 240 226
317 317 316 314 313 307 303 300 286 295 293 296 300 309 307 305 305 303 302 301 299 299 298 296 296 293 289 286 281 276 271 266 262 260 257 256 256 254 251 248 242 238 237
320 320 317 315 312 309 306 298 290 296 297 298 303 307 308 308 307 306 304 304 303 302 300 297 296 294 290 286 281 279 274 266 260 257 254 254 254 252 247 246 243 240 236
321 321 316 318 315 314 307 302 300 297 298 301 307 309 309 310 309 309 309 309 306 304 303 301 299 296 293 291 285 278 272 267 260 257 254 252 253 253 247 243 241 235 234
321 320 314 315 316 316 312 310 306 303 306 311 312 312 314 315 314 313 312 311 309 306 305 302 299 298 298 294 289 282 274 271 265 258 255 250 248 249 249 242 241 235 231
319 317 312 309 306 312 310 308 309 313 316 317 316 318 319 319 318 319 318 316 314 311 307 304 301 301 298 294 288 285 275 267 263 258 251 249 250 246 247 243 236 234 230
316 312 310 307 303 305 307 309 315 318 320 320 319 319 321 324 324 324 321 318 318 315 310 305 298 296 296 296 290 286 279 267 262 258 253 248 243 242 243 242 236 232 233
312 309 308 306 305 305 310 316 320 323 323 323 323 324 326 328 327 326 322 319 318 315 312 307 300 295 298 299 291 278 276 273 261 249 247 248 240 239 243 246 240 234 234
311 309 306 304 307 311 313 319 324 326 327 328 330 329 331 330 329 326 323 321 319 319 315 312 304 292 290 309 314 305 292 274 260 245 243 247 246 242 241 243 242 236 234